Wind_Speed
2 1 2 3 4 3 2 2 3 3 3 4 4 5 6 6 6 6 6 6 6 6 6 5 4 4 4 4 4 4 4 4 4 4 4 4 4 4 3 3 2 2 1 1 1 1 4 7 7
2 1 1 2 3 1 1 2 3 4 3 4 4 5 5 6 6 6 5 6 6 5 5 5 5 4 4 4 4 4 4 4 4 4 4 4 4 4 3 3 3 2 2 1 0 1 4 5 6
2 2 2 3 2 1 1 1 2 3 4 4 4 5 5 5 6 6 6 6 5 5 5 5 5 5 4 4 4 4 4 3 3 4 4 4 4 3 3 3 3 2 2 1 1 2 5 5 6
2 2 2 2 1 1 1 1 1 2 3 4 4 4 5 5 5 6 6 6 6 5 5 5 5 5 4 4 4 4 4 4 3 4 4 4 4 3 2 2 2 2 2 1 1 2 4 5 5
3 2 1 1 2 1 1 2 2 2 3 3 3 3 4 4 5 6 6 6 6 6 5 5 5 4 5 5 4 5 4 4 4 4 4 4 4 4 3 2 2 1 1 1 1 2 4 5 6
3 2 2 4 3 3 2 3 3 3 3 4 3 3 3 4 5 5 6 6 6 6 6 5 5 5 5 5 5 5 5 4 5 5 5 5 5 4 4 3 2 2 2 1 2 3 4 5 6
4 3 4 4 4 4 3 3 3 3 3 4 3 3 2 3 4 4 5 6 6 6 6 5 5 5 6 5 5 5 5 5 6 5 5 5 5 5 5 4 3 3 3 2 2 3 4 5 6
5 5 5 5 5 5 4 4 4 3 3 3 3 2 2 3 3 4 4 5 6 6 6 6 5 5 6 6 6 5 5 6 6 6 5 5 5 5 5 3 3 3 2 3 3 4 4 5 6
7 6 6 6 6 6 5 5 5 4 3 3 2 2 2 2 3 3 4 5 6 6 6 6 6 5 6 6 6 6 6 6 6 6 6 6 6 6 5 2 2 2 3 3 4 4 5 5 6
8 8 8 8 7 7 5 5 5 4 4 4 3 2 2 3 3 3 4 5 6 6 6 6 6 6 6 6 6 7 7 7 7 7 7 6 6 5 4 3 2 3 4 4 5 5 5 6 6
10 10 10 9 8 8 6 6 6 5 5 5 4 3 3 3 3 4 4 5 5 6 6 7 7 6 6 7 6 7 7 7 7 8 8 7 6 5 5 4 3 4 4 5 5 5 6 6 7
11 10 11 10 9 9 8 7 7 6 5 5 4 4 4 4 4 4 5 5 5 6 6 6 7 7 7 7 7 7 7 7 8 9 9 8 6 5 5 4 4 4 4 5 6 6 7 7 7
12 12 12 11 11 10 9 9 8 8 6 5 5 6 6 5 6 5 6 6 6 7 7 6 7 7 7 7 7 7 8 8 8 8 8 7 6 5 5 4 4 4 5 5 6 7 7 7 7
14 13 13 13 12 11 11 10 9 9 8 8 7 7 7 7 7 7 8 9 9 8 8 7 7 8 8 8 8 8 8 8 8 8 8 7 7 6 6 5 5 5 5 6 7 7 8 8 8
15 15 15 15 14 14 13 11 11 11 10 9 9 9 9 9 9 9 10 10 10 10 9 8 8 8 8 8 9 9 9 9 9 9 8 7 7 7 7 6 6 5 5 6 7 7 8 7 8
17 17 17 17 16 15 15 14 14 12 11 11 11 10 10 10 10 10 11 11 10 10 10 10 9 8 8 9 9 10 10 9 9 9 8 8 8 7 7 7 6 6 6 6 7 7 7 8 7
18 18 18 19 19 18 16 16 15 14 13 13 12 11 11 10 11 11 11 10 11 11 10 10 10 9 9 10 10 10 10 10 10 10 10 9 8 7 7 7 7 7 6 7 6 6 7 6 7
19 19 20 20 20 19 18 17 16 15 14 14 13 12 11 11 12 12 12 11 11 11 11 11 12 11 10 10 11 11 10 11 11 11 11 9 9 8 7 7 7 7 7 7 6 6 7 7 7
20 19 20 20 20 20 19 18 18 16 16 15 14 13 13 13 13 13 13 12 12 12 12 12 12 12 12 12 11 11 11 11 11 11 10 10 9 8 8 8 8 8 8 7 7 7 7 8 8
21 20 20 20 20 20 20 20 19 18 17 16 16 15 14 14 14 14 14 14 12 12 12 12 12 12 13 12 12 12 12 12 13 12 11 11 10 9 9 8 9 8 8 7 7 8 8 8 9
22 22 21 22 21 21 21 21 20 19 18 18 17 16 15 15 15 15 15 14 13 13 13 13 12 13 13 13 13 13 13 13 13 13 13 12 11 11 11 10 10 9 8 8 8 9 9 9 9
23 23 23 23 22 22 21 21 21 20 18 18 17 17 16 15 16 16 16 15 14 13 13 13 13 14 14 14 14 14 14 14 14 14 14 13 13 13 13 12 11 11 10 10 10 10 10 10 10
25 24 24 23 23 23 23 22 21 21 19 18 17 17 16 16 16 16 16 16 15 15 14 14 14 14 15 15 15 15 15 15 15 15 14 14 14 14 13 13 12 12 11 11 12 11 11 11 11
25 24 24 23 23 24 23 22 21 21 20 19 18 17 17 17 17 17 17 17 17 16 16 15 15 15 15 15 15 16 16 16 16 15 15 14 14 14 14 13 12 12 12 12 12 11 12 12 12
25 24 23 22 23 23 22 22 21 21 20 19 19 18 18 18 18 18 19 19 18 18 18 17 17 17 16 16 16 16 17 17 16 16 15 15 14 14 13 13 12 12 13 12 12 12 12 13 13
25 25 24 22 20 20 22 22 21 20 19 19 19 19 19 19 19 19 19 19 19 18 19 19 19 18 18 17 17 17 17 16 16 16 15 15 14 13 13 13 12 12 12 13 13 13 13 13 13
26 26 24 23 22 20 21 22 21 20 19 19 19 19 19 19 19 19 20 19 19 19 19 19 19 19 19 18 17 17 16 16 16 16 15 15 15 14 13 13 13 13 13 13 13 13 13 14 14
27 26 26 25 23 22 21 21 20 20 19 19 19 19 19 19 19 19 20 20 20 19 19 19 19 19 18 19 18 17 16 17 17 17 16 16 15 15 14 13 13 13 13 13 13 14 14 14 15
27 27 27 26 25 22 20 19 21 20 19 19 19 19 19 19 19 19 19 19 19 19 19 19 19 19 18 19 19 17 17 17 17 17 17 16 15 15 13 13 13 13 13 13 13 13 14 15 15
27 27 27 27 26 25 21 20 22 21 20 20 20 20 19 20 20 19 18 18 18 18 18 18 18 19 19 19 18 18 18 18 18 17 17 16 14 14 13 13 13 12 12 12 13 13 14 14 14
Wind_Direction
127 111 86 68 78 81 62 44 45 50 55 57 58 58 52 44 46 47 44 42 41 41 44 36 30 26 24 26 31 36 41 42 43 38 36 34 30 27 25 20 12 358 5 6 308 280 210 196 195
150 129 105 80 92 84 15 40 57 55 50 49 49 52 50 42 40 41 39 35 33 32 33 26 24 16 13 16 20 25 32 36 40 35 30 28 21 16 18 14 9 2 356 347 228 180 175 179 187
163 139 115 92 122 176 257 21 50 50 42 36 40 44 42 44 43 38 33 26 24 23 19 20 20 11 5 7 9 13 21 25 28 26 25 17 9 6 8 6 0 358 358 19 115 165 174 185 191
177 156 135 115 189 241 275 306 1 18 16 15 20 33 43 47 39 31 28 24 18 15 17 16 17 10 5 5 8 12 16 16 15 13 13 7 359 354 347 340 342 351 353 336 122 165 179 188 187
184 163 148 221 250 279 306 291 308 336 346 350 3 28 42 45 37 29 25 23 20 15 16 12 17 11 6 5 10 11 10 10 7 0 357 357 355 347 336 314 303 302 313 310 244 204 198 200 198
196 197 213 240 253 269 294 291 299 330 342 341 350 3 23 32 32 26 23 24 25 17 14 11 13 11 7 7 13 10 7 3 358 359 356 350 350 343 328 310 282 265 268 264 232 229 217 208 204
216 220 230 247 257 265 272 274 288 304 316 333 345 350 4 27 28 21 23 23 20 16 11 8 8 7 9 12 10 6 4 360 354 352 350 345 344 335 324 301 267 253 257 255 238 232 225 218 214
231 234 237 246 254 257 263 265 270 280 299 328 340 349 6 16 17 13 16 15 11 8 2 360 3 2 6 9 9 7 3 356 351 346 342 340 344 341 332 306 262 236 249 258 248 240 231 222 221
232 230 235 240 243 248 257 262 265 270 278 300 310 306 319 350 0 359 0 0 359 354 350 350 349 351 357 359 360 2 357 351 353 351 344 342 342 343 341 326 267 243 253 256 249 240 238 231 226
234 231 235 240 242 243 248 252 259 262 267 276 283 280 286 319 334 341 345 348 347 344 343 341 339 338 344 346 350 352 350 348 350 353 350 344 338 335 324 312 281 254 256 253 247 245 241 239 231
236 235 238 240 244 246 247 247 259 274 269 261 261 260 279 305 317 323 325 333 335 336 334 333 332 330 332 335 340 343 344 344 345 346 344 342 339 333 315 303 286 270 262 254 250 249 248 243 235
239 241 240 243 245 250 254 256 263 269 272 272 258 256 271 299 309 312 312 318 324 330 330 332 327 323 326 330 332 333 337 338 339 340 339 338 332 327 321 303 286 280 269 260 255 252 251 247 243
236 238 240 244 247 251 258 262 268 268 269 270 275 268 277 289 293 297 300 310 317 321 324 325 324 321 321 327 328 328 332 333 333 336 339 339 329 323 323 312 291 280 267 264 263 256 252 250 251
237 239 243 248 248 251 257 260 264 268 267 267 269 273 278 282 286 288 292 301 308 311 313 313 315 318 317 319 323 324 327 326 331 330 331 332 331 322 312 309 298 284 270 268 266 262 258 253 254
238 241 245 248 248 250 255 259 262 266 270 269 269 273 275 276 278 282 289 295 299 303 307 309 308 310 313 316 322 324 324 325 325 327 326 324 321 322 312 306 300 290 283 273 269 264 263 257 255
241 243 246 250 249 249 251 255 263 267 269 271 271 270 268 274 276 280 284 290 294 297 299 303 308 307 309 313 318 318 320 321 322 323 323 319 311 310 311 307 302 297 291 281 272 262 259 254 249
241 243 246 251 253 252 251 251 259 263 265 269 269 267 265 270 277 280 280 287 293 297 296 296 302 307 307 309 312 312 311 312 315 316 317 315 310 305 304 300 301 302 295 292 283 262 260 254 250
241 242 245 249 252 253 253 252 256 258 262 264 264 263 266 268 271 274 275 280 287 292 295 296 298 302 305 305 307 308 308 309 311 313 313 309 306 306 300 292 295 296 292 290 280 266 261 259 258
240 243 246 248 251 251 252 252 253 256 258 259 260 261 267 266 265 269 272 276 282 286 289 293 297 299 301 300 299 301 305 307 305 306 308 307 302 302 299 290 289 291 289 282 272 267 266 266 262
241 243 244 246 248 248 250 252 254 256 258 257 256 259 263 268 270 269 271 274 278 281 283 289 292 296 297 296 294 295 298 302 305 304 304 301 297 295 299 292 291 289 283 274 270 268 268 267 264
242 242 244 246 247 249 251 253 255 256 257 257 256 259 263 266 270 272 272 271 275 278 279 282 284 290 293 292 292 292 293 297 303 307 305 297 293 289 290 290 288 284 279 275 275 270 268 267 269
243 243 245 247 247 249 250 253 254 255 255 255 257 259 259 261 266 269 268 269 271 274 275 276 281 289 291 291 292 290 291 295 299 303 302 294 292 290 286 286 283 278 277 275 276 273 266 268 272
242 243 245 248 248 249 251 249 252 254 253 252 253 256 257 259 264 265 265 264 266 268 269 272 280 286 289 289 291 288 289 292 296 299 301 297 293 291 287 284 281 277 276 276 277 274 266 266 270
242 243 245 248 248 248 249 249 249 251 251 250 251 254 255 257 260 263 264 265 266 266 267 271 277 283 286 287 288 287 288 290 293 296 299 297 295 291 287 281 278 275 276 276 276 273 269 267 269
241 240 242 243 245 249 249 248 248 248 249 249 250 252 253 254 257 260 264 266 266 265 267 271 276 279 282 283 284 285 286 288 289 293 297 296 295 291 287 283 275 272 275 276 273 273 273 271 270
242 240 237 238 244 249 251 249 249 249 247 247 248 250 251 253 256 258 262 265 265 265 268 271 273 276 280 282 281 283 283 285 289 292 294 292 292 290 289 285 280 275 275 275 274 272 272 271 271
241 240 240 242 244 244 249 252 250 249 248 247 247 247 249 254 257 260 262 263 264 265 267 270 273 276 279 280 281 282 280 283 286 288 290 288 286 288 288 286 279 277 276 277 274 274 276 273 273
237 238 237 237 241 244 249 253 250 249 250 250 247 247 249 252 255 259 262 261 262 265 266 269 274 276 277 280 281 280 279 280 285 285 284 283 284 282 283 284 280 277 278 276 274 275 278 279 277
236 235 237 238 240 242 247 252 252 248 248 248 248 249 249 250 254 257 260 260 261 264 266 269 274 276 277 279 281 278 276 279 281 282 283 283 282 280 278 279 281 280 280 277 274 276 277 277 277
238 238 238 238 240 241 242 249 252 249 247 246 247 248 250 250 252 256 259 260 260 264 267 269 272 275 277 280 278 274 274 276 279 280 281 282 279 277 273 275 279 278 280 279 279 279 277 278 277
Height
5908 5908 5909 5910 5912 5913 5912 5912 5911 5910 5909 5908 5908 5907 5906 5906 5906 5907 5903 5901 5900 5899 5897 5896 5896 5895 5894 5893 5892 5891 5890 5889 5888 5888 5887 5886 5885 5884 5884 5883 5882 5881 5881 5880 5879 5876 5874 5876 5880
5908 5908 5910 5911 5913 5914 5913 5911 5911 5910 5909 5909 5907 5907 5906 5905 5904 5904 5902 5901 5900 5899 5898 5897 5896 5895 5894 5893 5892 5891 5890 5889 5888 5887 5886 5886 5885 5884 5883 5882 5881 5881 5880 5880 5879 5877 5876 5877 5880
5907 5908 5910 5911 5913 5913 5913 5911 5911 5910 5909 5909 5908 5907 5906 5905 5905 5903 5902 5901 5900 5898 5897 5896 5895 5895 5894 5893 5892 5890 5889 5888 5887 5886 5886 5885 5884 5883 5882 5881 5881 5880 5880 5879 5878 5878 5878 5879 5880
5907 5909 5911 5912 5912 5912 5911 5911 5910 5909 5909 5908 5908 5907 5906 5906 5905 5904 5902 5901 5900 5898 5897 5896 5895 5894 5893 5892 5891 5890 5889 5888 5887 5886 5885 5884 5883 5882 5881 5880 5880 5879 5879 5879 5878 5879 5879 5880 5880
5907 5909 5911 5911 5911 5911 5910 5910 5910 5909 5909 5908 5908 5907 5906 5906 5904 5904 5902 5901 5900 5899 5897 5896 5895 5894 5893 5892 5891 5890 5888 5887 5887 5885 5884 5883 5882 5881 5880 5879 5879 5878 5878 5878 5878 5878 5879 5879 5880
5908 5909 5911 5911 5910 5910 5910 5909 5909 5909 5908 5908 5907 5907 5906 5905 5904 5904 5902 5901 5900 5899 5897 5896 5895 5894 5893 5891 5890 5889 5888 5887 5886 5884 5883 5882 5881 5880 5878 5878 5877 5877 5877 5877 5877 5878 5878 5878 5879
5907 5908 5909 5910 5909 5909 5910 5909 5909 5909 5908 5908 5907 5906 5906 5905 5904 5903 5902 5901 5900 5899 5897 5896 5895 5894 5892 5891 5890 5889 5888 5886 5885 5884 5882 5881 5880 5878 5876 5874 5874 5876 5876 5877 5877 5877 5877 5878 5878
5906 5908 5908 5908 5909 5909 5909 5908 5908 5908 5908 5907 5907 5906 5906 5905 5904 5903 5902 5901 5900 5899 5897 5896 5895 5893 5892 5891 5890 5888 5887 5886 5884 5883 5881 5880 5879 5877 5873 5870 5871 5874 5875 5876 5876 5876 5876 5877 5877
5904 5907 5907 5907 5907 5907 5907 5907 5907 5907 5907 5906 5906 5906 5905 5904 5903 5903 5902 5901 5899 5898 5897 5896 5894 5893 5891 5890 5889 5888 5886 5885 5884 5882 5880 5879 5877 5876 5873 5871 5871 5873 5874 5875 5875 5875 5875 5876 5876
5903 5905 5905 5905 5905 5905 5906 5906 5906 5906 5906 5906 5905 5905 5904 5903 5903 5902 5901 5900 5899 5898 5897 5895 5894 5893 5891 5890 5888 5887 5886 5884 5883 5881 5879 5878 5876 5875 5873 5872 5872 5873 5873 5873 5874 5874 5874 5874 5875
5901 5902 5902 5903 5903 5904 5904 5905 5904 5905 5905 5905 5904 5904 5903 5903 5902 5901 5900 5899 5898 5897 5896 5895 5893 5892 5891 5889 5888 5886 5885 5883 5882 5880 5878 5877 5875 5874 5873 5872 5872 5872 5872 5872 5872 5873 5873 5873 5873
5898 5899 5900 5901 5901 5902 5902 5903 5903 5904 5904 5903 5903 5903 5902 5902 5901 5900 5900 5899 5898 5896 5895 5894 5893 5891 5890 5889 5887 5886 5884 5883 5881 5879 5877 5876 5875 5874 5872 5871 5871 5870 5871 5871 5871 5872 5871 5872 5872
5896 5897 5898 5899 5899 5900 5901 5901 5902 5902 5902 5902 5902 5902 5901 5901 5900 5900 5899 5898 5897 5896 5894 5893 5892 5890 5889 5888 5886 5885 5883 5882 5880 5878 5877 5875 5874 5873 5872 5871 5870 5869 5869 5869 5869 5870 5870 5870 5870
5893 5895 5895 5896 5897 5898 5899 5900 5900 5900 5901 5900 5900 5900 5900 5899 5899 5898 5898 5897 5896 5895 5894 5892 5891 5889 5888 5887 5885 5884 5882 5881 5879 5877 5875 5874 5873 5872 5871 5870 5869 5868 5868 5868 5868 5868 5868 5868 5868
5890 5892 5893 5894 5894 5896 5897 5898 5898 5899 5899 5899 5898 5898 5898 5898 5897 5897 5896 5895 5894 5893 5892 5891 5889 5888 5887 5886 5884 5883 5881 5879 5878 5876 5874 5873 5872 5871 5869 5868 5867 5867 5866 5866 5866 5866 5866 5866 5866
5887 5889 5890 5891 5891 5892 5896 5896 5896 5896 5897 5897 5897 5896 5896 5896 5895 5895 5894 5893 5892 5892 5891 5890 5888 5887 5886 5885 5883 5881 5880 5878 5876 5875 5873 5872 5870 5869 5868 5867 5866 5865 5864 5864 5864 5864 5864 5864 5865
5883 5885 5887 5888 5888 5889 5891 5893 5893 5893 5894 5894 5894 5894 5894 5894 5893 5892 5892 5891 5891 5890 5889 5888 5887 5886 5884 5883 5881 5880 5878 5877 5875 5874 5872 5870 5869 5867 5866 5865 5864 5864 5863 5863 5862 5862 5862 5863 5863
5880 5882 5883 5884 5884 5886 5887 5888 5889 5890 5890 5891 5891 5891 5891 5891 5891 5890 5890 5889 5889 5888 5887 5886 5885 5884 5883 5881 5880 5878 5877 5875 5874 5872 5870 5868 5867 5866 5865 5864 5863 5862 5862 5861 5861 5861 5861 5861 5861
5875 5877 5879 5880 5880 5882 5883 5884 5885 5886 5887 5887 5888 5888 5888 5888 5888 5888 5888 5887 5887 5886 5885 5884 5883 5882 5881 5879 5878 5877 5875 5874 5872 5870 5868 5867 5865 5864 5863 5862 5862 5861 5860 5860 5860 5860 5860 5859 5859
5870 5872 5874 5875 5876 5877 5878 5880 5881 5882 5883 5884 5885 5885 5885 5885 5885 5885 5885 5885 5884 5884 5883 5882 5881 5880 5879 5877 5876 5875 5873 5872 5870 5868 5867 5865 5864 5863 5861 5860 5860 5859 5859 5858 5858 5858 5858 5857 5858
5865 5867 5869 5870 5871 5873 5875 5876 5876 5878 5879 5880 5880 5881 5882 5882 5882 5882 5882 5881 5881 5881 5880 5879 5878 5877 5876 5875 5874 5872 5871 5869 5868 5866 5865 5863 5862 5861 5860 5859 5858 5857 5857 5856 5856 5856 5856 5856 5855
5860 5862 5863 5865 5867 5868 5871 5872 5873 5873 5874 5875 5876 5877 5878 5878 5878 5878 5878 5878 5878 5878 5877 5876 5875 5874 5873 5872 5871 5869 5868 5867 5865 5863 5862 5860 5859 5858 5857 5856 5855 5855 5854 5854 5854 5853 5853 5853 5853
5854 5855 5857 5859 5861 5863 5865 5867 5869 5869 5870 5871 5872 5873 5873 5874 5874 5874 5875 5875 5875 5874 5874 5873 5872 5872 5870 5869 5868 5866 5865 5864 5862 5861 5859 5857 5856 5855 5854 5853 5853 5852 5852 5852 5851 5851 5851 5851 5851
5847 5850 5852 5853 5856 5858 5860 5862 5864 5864 5865 5867 5868 5868 5869 5870 5870 5871 5871 5871 5871 5871 5870 5870 5869 5868 5867 5866 5865 5863 5862 5860 5859 5858 5856 5854 5853 5852 5851 5850 5849 5849 5849 5849 5848 5848 5848 5848 5848
5841 5845 5847 5849 5851 5853 5855 5855 5859 5859 5860 5862 5863 5864 5864 5865 5866 5866 5866 5867 5867 5867 5866 5866 5865 5865 5864 5863 5862 5860 5858 5857 5856 5854 5853 5851 5849 5848 5847 5847 5846 5846 5846 5846 5846 5845 5845 5845 5845
5835 5839 5843 5846 5848 5850 5848 5850 5853 5854 5855 5856 5858 5859 5859 5860 5861 5862 5862 5862 5862 5862 5862 5862 5861 5861 5860 5859 5858 5856 5855 5854 5852 5851 5849 5848 5846 5845 5845 5844 5843 5843 5843 5843 5842 5842 5842 5842 5842
5829 5832 5836 5839 5841 5844 5844 5845 5847 5848 5850 5851 5853 5854 5854 5855 5856 5857 5857 5857 5857 5857 5857 5857 5857 5856 5855 5855 5853 5852 5851 5850 5849 5848 5846 5845 5844 5843 5842 5841 5840 5840 5839 5839 5839 5839 5838 5838 5838
5823 5826 5829 5832 5834 5837 5840 5840 5842 5843 5844 5846 5847 5848 5850 5851 5851 5852 5852 5852 5852 5853 5853 5852 5852 5851 5851 5850 5849 5848 5847 5846 5845 5844 5843 5842 5841 5840 5839 5838 5837 5836 5836 5836 5835 5835 5835 5834 5834
5817 5820 5822 5826 5829 5832 5835 5839 5836 5837 5839 5841 5842 5843 5844 5846 5846 5847 5847 5848 5848 5848 5848 5848 5847 5846 5846 5845 5844 5843 5843 5842 5841 5840 5839 5838 5837 5836 5835 5835 5834 5833 5833 5832 5832 5832 5831 5831 5830
5810 5813 5816 5820 5822 5824 5829 5834 5829 5832 5833 5835 5836 5838 5839 5840 5841 5842 5842 5843 5843 5843 5843 5843 5842 5842 5841 5840 5839 5838 5838 5837 5837 5836 5835 5834 5833 5833 5832 5831 5831 5830 5829 5829 5828 5827 5827 5827 5826